Hourly Data Report for April 21, 2021

OTTAWA INTL A
ONTARIO
Current Station Operator: NAVCAN

45°19'00.000" N
75°40'00.000" W
114.90 m
6106001
71628
YOW

Download Data

Hourly Data (April 2021)
Hourly Data Report for April 21, 2021
TIME
LST
Temp Definition
°C
Dew Point Definition
°C
Rel Hum Definition
%
Precip. Amount Definition
mm

Wind Dir Definition
10's deg

Wind Spd Definition
km/h
Visibility Definition
km
Stn Press Definition
kPa
Hmdx Definition


Wind Chill Definition


Weather Definition


00:00 1.9 -4.8 61   28 16 24.1 100.01     LegendNANA
01:00 1.6 -4.5 64   28 10 24.1 100.00     Cloudy
02:00 0.5 -4.4 70   34 16 24.1 99.97     Snow
03:00 -1.3 -4.7 78   1 19 3.2 99.99   -7 Snow
04:00 -1.1 -6.6 66   35 21 12.9 99.92   -7 Snow
05:00 -2.4 -4.8 84   33 18 6.4 99.92   -8 Snow
06:00 -3.0 -5.0 86   32 17 4.8 99.90   -9 Snow
07:00 -2.6 -4.5 87   32 18 4.8 99.89   -8 Snow
08:00 -3.1 -6.3 79   36 21 4.8 99.85   -9 Snow
09:00 -2.9 -6.7 75   33 19 9.7 99.82   -9 Snow
10:00 -2.6 -6.3 76   34 14 16.1 99.73   -7 Snow
11:00 -2.1 -5.5 77   36 17 6.4 99.69   -7 Snow
12:00 -2.5 -5.5 80   32 12 4.0 99.67   -7 Snow
13:00 -0.3 -7.1 60   32 21 24.1 99.61   -6 Cloudy
14:00 0.6 -8.7 50   35 11 24.1 99.58     LegendNANA
15:00 1.5 -10.5 41   31 10 24.1 99.54     LegendNANA
16:00 2.0 -10.5 39   34 17 24.1 99.51     Mostly Cloudy
17:00 1.5 -10.4 41   34 26 24.1 99.53     LegendNANA
18:00 0.6 -10.5 43   34 19 24.1 99.51     LegendNANA
19:00 0.3 -10.8 43   34 19 24.1 99.51     Mostly Cloudy
20:00 0.3 -10.4 45   32 25 24.1 99.55     LegendNANA
21:00 -0.2 -10.0 48   33 23 24.1 99.55   -6 LegendNANA
22:00 -1.3 -8.2 60   32 20 24.1 99.51   -7 Mostly Cloudy
23:00 -2.2 -6.6 72   31 18 24.1 99.49   -8 LegendNANA

Notes on Data Quality.

Legend

  • E = Estimated
  • M = Missing
  • NA = Not Available*
  • [empty] = Indicates an unobserved value
Date modified: